Cordova, SC

5:03 AM EST on February 06, 2016 (GMT -0500)
Orangeburg Municipal

Weather History for KOGB - October, 2010

Change the Weather History Date:

Wednesday, October 20, 2010

  Actual Average Record
Temperature  
Mean Temperature 64 °F 64 °F  
Max Temperature 75 °F 75 °F 87 °F (1984)
Min Temperature 53 °F 52 °F 32 °F (1981)
Degree Days  
Heating Degree Days 1 3  
Month to date heating degree days 27 35  
Since 1 July heating degree days 27 39  
Cooling Degree Days 0 2  
Month to date cooling degree days 42 75  
Year to date cooling degree days 2470 2069  
Growing Degree Days 14 (Base 50)    
Moisture  
Dew Point 55 °F    
Average Humidity 82    
Maximum Humidity 93    
Minimum Humidity 54    
Precipitation  
Precipitation 0.00 in 0.11 in 3.05 in (1968)
Month to date precipitation 0.23 2.55  
Year to date precipitation 36.64 39.65  
Sea Level Pressure  
Sea Level Pressure 29.90 in    
Wind  
Wind Speed 2 mph (WNW)    
Max Wind Speed 12 mph    
Max Gust Speed 16 mph    
Visibility 7 miles    
Events      
T = Trace of Precipitation, MM = Missing Value Source: NWS Daily Summary

Daily Weather History Graph

Daily Weather History Graph

Search for Another Location

Airport or City:

Trip Planner

Search our weather history database for the weather conditions in past years. The results will help you decide how hot, cold, wet, or windy it might be!

Date:

Astronomy

Oct. 20, 2010 Rise Set
Actual Time 7:31 AM EDT 6:43 PM EDT
Civil Twilight 7:06 AM EDT 7:09 PM EDT
Nautical Twilight 6:37 AM EDT 7:38 PM EDT
Astronomical Twilight 6:09 AM EDT 8:06 PM EDT
Moon 5:14 PM EDT (10/20) 5:17 AM EDT (10/20)
Length of Visible Light 12h 02m
Length of Day
11h 11m
Waxing Gibbous, 95% of the Moon is Illuminated
Oct 20
Waxing Gibbous
Oct 22
Full
Oct 30
Last Quarter
Nov 6
New
Nov 13
First Quarter

Hourly Weather History & Observations

Time (EDT) Temp. Dew Point Humidity Pressure Visibility Wind Dir Wind Speed Gust Speed Precip Events Conditions
12:53 AM 55.0 °F 52.0 °F 89% 29.91 in 9.0 mi Calm Calm - N/A   Clear
1:53 AM 54.0 °F 52.0 °F 93% 29.91 in 8.0 mi Calm Calm - N/A   Clear
2:53 AM 55.0 °F 51.1 °F 86% 29.89 in 8.0 mi Calm Calm - N/A   Clear
3:53 AM 53.1 °F 51.1 °F 93% 29.89 in 8.0 mi Calm Calm - N/A   Clear
4:53 AM 54.0 °F 50.0 °F 86% 29.88 in 8.0 mi Calm Calm - N/A   Clear
5:53 AM 54.0 °F 51.1 °F 90% 29.88 in 8.0 mi Calm Calm - N/A   Overcast
6:53 AM 54.0 °F 51.1 °F 90% 29.88 in 8.0 mi Calm Calm - N/A   Mostly Cloudy
7:53 AM 55.0 °F 51.1 °F 86% 29.89 in 7.0 mi Calm Calm - N/A   Mostly Cloudy
8:53 AM 57.0 °F 53.1 °F 87% 29.89 in 8.0 mi Calm Calm - N/A   Clear
9:53 AM 64.9 °F 54.0 °F 68% 29.92 in 9.0 mi West 8.1 mph - N/A   Mostly Cloudy
10:53 AM 68.0 °F 54.0 °F 61% 29.91 in 9.0 mi NW 8.1 mph - N/A   Scattered Clouds
11:53 AM 66.9 °F 55.0 °F 66% 29.92 in 9.0 mi WNW 9.2 mph - N/A   Scattered Clouds
12:53 PM 70.0 °F 55.9 °F 61% 29.91 in 10.0 mi WNW 4.6 mph - N/A   Clear
1:53 PM 70.0 °F 57.0 °F 63% 29.89 in 10.0 mi West 6.9 mph - N/A   Clear
2:53 PM 70.0 °F 57.0 °F 63% 29.87 in 10.0 mi West 3.5 mph - N/A   Mostly Cloudy
3:53 PM 72.0 °F 57.9 °F 61% 29.86 in 10.0 mi WNW 4.6 mph - N/A   Clear
4:53 PM 75.0 °F 57.0 °F 53% 29.86 in 10.0 mi WSW 5.8 mph - N/A   Clear
5:53 PM 73.0 °F 57.0 °F 57% 29.85 in 10.0 mi Calm Calm - N/A   Partly Cloudy
6:53 PM 70.0 °F 59.0 °F 68% 29.86 in 10.0 mi Calm Calm - N/A   Mostly Cloudy
7:53 PM 64.9 °F 59.0 °F 81% 29.88 in 10.0 mi NNE 3.5 mph - N/A   Partly Cloudy
8:53 PM 62.1 °F 59.0 °F 90% 29.90 in 7.0 mi Calm Calm - N/A   Clear
9:53 PM 60.1 °F 57.9 °F 93% 29.91 in 5.0 mi Calm Calm - N/A   Clear
10:34 PM 59.0 °F 57.2 °F 94% 29.92 in 1.8 mi Calm Calm - N/A   Clear
10:48 PM 59.0 °F 57.2 °F 94% 29.92 in 1.0 mi Calm Calm - N/A   Clear
10:53 PM 59.0 °F 57.0 °F 93% 29.92 in 1.5 mi Calm Calm - N/A   Clear
11:06 PM 57.2 °F 57.2 °F 100% 29.92 in 2.5 mi Calm Calm - N/A   Clear
11:17 PM 57.2 °F 57.2 °F 100% 29.92 in 1.5 mi Calm Calm - N/A   Clear
11:32 PM 57.2 °F 55.4 °F 94% 29.92 in 2.0 mi Calm Calm - N/A   Clear
11:48 PM 57.2 °F 55.4 °F 94% 29.91 in 1.2 mi Calm Calm - N/A   Clear
11:53 PM 57.0 °F 55.9 °F 96% 29.91 in 1.0 mi Calm Calm - N/A   Clear